Starlink 31923

operational
NORAD ID: 60600 Int'l Des: 2024-150 Owner: SPXS Country: US Constellation: starlink
LEOCIRCULAR

Starlink 31923について

説明を読み込み中...

リアルタイム位置

3D地球を読み込み中...

次回通過

高度履歴

Altitude vs Time

uPlot chart will show altitude changes over time

軌道要素

1 60600U 24150T 25307.98786274 .00005737 00000-0 20564-3 0 9994
2 60600 53.1593 171.0558 0001162 97.9977 262.1156 15.30207561 68798
Epoch: Nov 3, 2025 • Age: 16 hours

現在のステータス

高度 475.1 km
速度 7.63 km/s
衛星直下点 18.59°N, 48.25°E
打ち上げ日 Aug 20, 2024
運用期間 1.2 years
タイプ internet

技術仕様

分類 Payload
質量 730.00 kg
乾燥質量 700.00 kg
総質量 730.00 kg
長さ 0.30 m
直径 4.10 m
スパン 29.00 m
形状 Box + pan
製造者 SPXS
バスタイプ Starlink V2M
フェーズステータス In Orbit
所有者/国 SPXS/US

大規模コンステレーション

Loading constellations...